Stations météo

Publicité
Kasteli, Grèce (16760): Température de l'air & dewpoint: 14.10.2018 21:00:00 - 20.10.2018 21:00:00 (EEST)Kasteli, Grèce (16760): Vitesse du vent: 14.10.2018 21:00:00 - 20.10.2018 21:00:00 (EEST)Kasteli, Grèce (16760): Direction du vent: 14.10.2018 21:00:00 - 20.10.2018 21:00:00 (EEST)Kasteli, Grèce (16760): reduced air pressure: 14.10.2018 21:00:00 - 20.10.2018 21:00:00 (EEST)Kasteli, Grèce (16760): visibility: 14.10.2018 21:00:00 - 20.10.2018 21:00:00 (EEST)
Date & Time tt [°C] td [°C] ff [km/h] ff [knt] dd ppp [hPa] vv [km]
20.10.2018 21:00:00 17,2 16,3 8 4 NNW 1016,9 10
20.10.2018 20:00:00 - - - - - - -
20.10.2018 19:00:00 - - - - - - -
20.10.2018 18:00:00 19,6 16,3 18 10 NNE 1015,8 10
20.10.2018 17:00:00 - - - - - - -
20.10.2018 16:00:00 - - - - - - -
20.10.2018 15:00:00 22,6 16,7 18 10 NNE 1015,9 10
20.10.2018 14:00:00 - - - - - - -
20.10.2018 13:00:00 - - - - - - -
20.10.2018 12:00:00 21,8 16,8 16 9 N 1017,1 10
20.10.2018 11:00:00 - - - - - - -
20.10.2018 10:00:00 - - - - - - -
20.10.2018 09:00:00 17,4 16,8 11 6 N 1017,3 9
20.10.2018 08:00:00 - - - - - - -
20.10.2018 07:00:00 - - - - - - -
20.10.2018 06:00:00 16,6 16,2 13 7 NNW 1016,5 10
20.10.2018 05:00:00 - - - - - - -
20.10.2018 04:00:00 - - - - - - -
20.10.2018 03:00:00 17,4 16,8 9 5 N 1016,2 -
20.10.2018 02:00:00 - - - - - - -
20.10.2018 01:00:00 - - - - - - -
20.10.2018 00:00:00 17,6 16,9 8 4 NNE 1016,6 -
19.10.2018 23:00:00 - - - - - - -
19.10.2018 22:00:00 - - - - - - -
19.10.2018 21:00:00 18,0 16,8 5 3 N 1016,3 10
19.10.2018 20:00:00 - - - - - - -
19.10.2018 19:00:00 - - - - - - -
19.10.2018 18:00:00 20,4 17,1 11 6 N 1015,1 10
19.10.2018 17:00:00 - - - - - - -
19.10.2018 16:00:00 - - - - - - -
19.10.2018 15:00:00 22,2 17,4 13 7 N 1014,4 10
19.10.2018 14:00:00 - - - - - - -
19.10.2018 13:00:00 - - - - - - -
19.10.2018 12:00:00 24,0 15,8 0 0 N 1015,2 10
19.10.2018 11:00:00 - - - - - - -
19.10.2018 10:00:00 - - - - - - -
19.10.2018 09:00:00 16,2 15,4 0 0 N 1017,5 8
19.10.2018 08:00:00 - - - - - - -
19.10.2018 07:00:00 - - - - - - -
19.10.2018 06:00:00 14,1 13,5 2 1 N 1016,3 -
19.10.2018 05:00:00 - - - - - - -
19.10.2018 04:00:00 - - - - - - -
19.10.2018 03:00:00 16,4 14,9 5 3 N 1016,1 10
19.10.2018 02:00:00 - - - - - - -
19.10.2018 01:00:00 - - - - - - -
19.10.2018 00:00:00 15,3 14,6 2 1 N 1016,7 -
18.10.2018 23:00:00 - - - - - - -
18.10.2018 22:00:00 - - - - - - -
18.10.2018 21:00:00 16,4 14,7 0 0 N 1016,0 10
18.10.2018 20:00:00 - - - - - - -
18.10.2018 19:00:00 - - - - - - -
18.10.2018 18:00:00 19,8 15,3 13 7 NNE 1014,5 10
18.10.2018 17:00:00 - - - - - - -
18.10.2018 16:00:00 - - - - - - -
18.10.2018 15:00:00 22,2 15,6 11 6 NNE 1014,4 10
18.10.2018 14:00:00 - - - - - - -
18.10.2018 13:00:00 - - - - - - -
18.10.2018 12:00:00 21,4 14,6 8 4 NNE 1016,0 10
18.10.2018 11:00:00 - - - - - - -
18.10.2018 10:00:00 - - - - - - -
18.10.2018 09:00:00 16,4 15,8 0 0 N 1016,4 10
18.10.2018 08:00:00 - - - - - - -
18.10.2018 07:00:00 - - - - - - -
18.10.2018 06:00:00 15,9 15,5 2 1 N 1015,7 -
18.10.2018 05:00:00 - - - - - - -
18.10.2018 04:00:00 - - - - - - -
18.10.2018 03:00:00 17,2 15,8 5 3 N 1015,9 10
18.10.2018 02:00:00 - - - - - - -
18.10.2018 01:00:00 - - - - - - -
18.10.2018 00:00:00 17,6 14,9 8 4 N 1016,8 -
17.10.2018 23:00:00 - - - - - - -
17.10.2018 22:00:00 - - - - - - -
17.10.2018 21:00:00 18,0 15,1 11 6 N 1016,5 10
17.10.2018 20:00:00 - - - - - - -
17.10.2018 19:00:00 - - - - - - -
17.10.2018 18:00:00 18,6 15,2 16 9 NNE 1016,0 10
17.10.2018 17:00:00 - - - - - - -
17.10.2018 16:00:00 - - - - - - -
17.10.2018 15:00:00 20,8 13,6 13 7 N 1015,8 10
17.10.2018 14:00:00 - - - - - - -
17.10.2018 13:00:00 - - - - - - -
17.10.2018 12:00:00 19,6 14,4 18 10 N 1017,1 10
17.10.2018 11:00:00 - - - - - - -
17.10.2018 10:00:00 - - - - - - -
17.10.2018 09:00:00 16,8 14,5 15 8 NNE 1017,6 10
17.10.2018 08:00:00 - - - - - - -
17.10.2018 07:00:00 - - - - - - -
17.10.2018 06:00:00 16,2 15,0 9 5 N 1017,6 -
17.10.2018 05:00:00 - - - - - - -
17.10.2018 04:00:00 - - - - - - -
17.10.2018 03:00:00 15,8 14,4 9 5 NNE 1018,7 10
17.10.2018 02:00:00 - - - - - - -
17.10.2018 01:00:00 - - - - - - -
17.10.2018 00:00:00 16,7 14,9 8 4 NNE 1019,8 -
16.10.2018 23:00:00 - - - - - - -
16.10.2018 22:00:00 - - - - - - -
16.10.2018 21:00:00 17,8 15,6 15 8 NNW 1019,5 10
16.10.2018 20:00:00 - - - - - - -
16.10.2018 19:00:00 - - - - - - -
16.10.2018 18:00:00 19,4 15,2 21 11 NNW 1018,9 10
16.10.2018 17:00:00 - - - - - - -
16.10.2018 16:00:00 - - - - - - -
16.10.2018 15:00:00 21,0 13,8 13 7 N 1019,1 10
16.10.2018 14:00:00 - - - - - - -
16.10.2018 13:00:00 - - - - - - -
16.10.2018 12:00:00 18,8 15,3 13 7 N 1020,3 10
16.10.2018 11:00:00 - - - - - - -
16.10.2018 10:00:00 - - - - - - -
16.10.2018 09:00:00 17,4 15,2 9 5 NNE 1020,2 10
16.10.2018 08:00:00 - - - - - - -
16.10.2018 07:00:00 - - - - - - -
16.10.2018 06:00:00 16,6 15,3 9 5 N 1019,6 10
16.10.2018 05:00:00 - - - - - - -
16.10.2018 04:00:00 - - - - - - -
16.10.2018 03:00:00 17,4 15,7 5 3 N 1019,9 10
16.10.2018 02:00:00 - - - - - - -
16.10.2018 01:00:00 - - - - - - -
16.10.2018 00:00:00 17,1 16,2 5 3 N 1020,2 -
15.10.2018 23:00:00 - - - - - - -
15.10.2018 22:00:00 - - - - - - -
15.10.2018 21:00:00 17,4 15,4 5 3 N 1019,7 10
15.10.2018 20:00:00 - - - - - - -
15.10.2018 19:00:00 - - - - - - -
15.10.2018 18:00:00 18,8 15,1 9 5 NNW 1019,0 10
15.10.2018 17:00:00 - - - - - - -
15.10.2018 16:00:00 - - - - - - -
15.10.2018 15:00:00 20,4 15,3 15 8 NNW 1018,1 10
15.10.2018 14:00:00 - - - - - - -
15.10.2018 13:00:00 - - - - - - -
15.10.2018 12:00:00 21,0 14,7 8 4 NNE 1018,8 10
15.10.2018 11:00:00 - - - - - - -
15.10.2018 10:00:00 - - - - - - -
15.10.2018 09:00:00 17,2 15,6 8 4 NNE 1018,8 10
15.10.2018 08:00:00 - - - - - - -
15.10.2018 07:00:00 - - - - - - -
15.10.2018 06:00:00 15,7 14,4 5 3 N 1018,5 -
15.10.2018 05:00:00 - - - - - - -
15.10.2018 04:00:00 - - - - - - -
15.10.2018 03:00:00 15,6 13,9 0 0 N 1019,1 10
15.10.2018 02:00:00 - - - - - - -
15.10.2018 01:00:00 - - - - - - -
15.10.2018 00:00:00 15,4 14,0 4 2 N 1019,8 -
14.10.2018 23:00:00 - - - - - - -
14.10.2018 22:00:00 - - - - - - -
14.10.2018 21:00:00 17,2 15,6 9 5 NE 1019,6 10

tt = Température de l'air
td = dewpoint
ff = Vitesse du vent
dd = Direction du vent
ppp = reduced air pressure
vv = visibility

stations d'obs. à proximité